Volver al catálogo

DELTA 2 R/B

ActivoMEO
NORAD 33106·ROCKET BODY·🇺🇸 United States

Lanzado Jun 20, 2008 desde Vandenberg Space Force Base

Loading…

Próximos Pases (próximas 24 horas)

TLE

ActualizadoSource: Space-Track

Época: Sep 14, 2026, 15:02 UTC

1 33106U 08032B   26257.62657062 -.00000040  00000-0 -25697-2 0  9999
2 33106  65.2330 219.8548 1151568 213.8398 326.8300  9.17451673610969

Sigue DELTA 2 R/B en tiempo real con AllMySat

Download on the App Store